STARLINK-30037 (55712 NORAD) Tracking and Keplerian Element Data

This shows tracking and keplerian element data for the satellite.

Feedback or suggestion? Click here.




ElementValue
Catalog55712
NameSTARLINK-30037
Epoch Orbit169
Epoch Day63.16667824
Epoch Year2023
RAAN258.1048
Inclination43.0107
Eccentricity0.0001002
Argument of Perigee290.4843
Mean Anonmoly145.9132
Mean Motion15.66420005
Decay Rate-0.00775953
L11 55712U 23026T 23063.16667824 -.00775953 00000+0 -79673-2 0 9998
L22 55712 43.0107 258.1048 0001002 290.4843 145.9132 15.66420005 1698



Live tracking and technical data element details for STARLINK-30037 (NORAD 55712). STARLINK-30037 can be tracked NOW for your location showing map with azimuth and elevation plus other details from your city location.







IsCatalogInMostPopularTable: catalog: 55712, numindb: 4
Update: records affected: 1



GetName: 55712 STARLINK-30037

Hit Count: updated at: Wed, 22 Mar 2023 15:58:58 GMT